Flag for Germany Weather past 2 weeks in Troisdorf, North Rhine-Westphalia, Germany

Now
46 °F

Light rain. Broken clouds.


Feels Like: 41 °F
Forecast: 37 / 54 °F
Wind: 12 mph from North

Location: Koeln / Bonn

Current Time: Apr 27, 2015 at 2:18:36 PM

Latest Report: Apr 27, 2015 at 1:50 PM


Visibility: N/A

Pressure: 29.74 "Hg

Humidity: 87%

Dew point: 43 °F

Location of TroisdorfLocation

Historic Weather in Troisdorf — Graph

°F

Troisdorf temperature yesterday

Maximum temperature yesterday: 63 °F (at 3:50 PM)
Minimum temperature yesterday: 52 °F (at 12:20 AM)
Average temperature yesterday: 56 °F

Past Weeks' High & Low Weather Summary

 TemperatureHumidityPressure
High77 °F (Apr 15, 4:20 PM)100% (Apr 23, 7:20 AM)30.48 "Hg (Apr 23, 7:20 AM)
Low30 °F (Apr 19, 6:50 AM)22% (Apr 24, 5:20 PM)29.59 "Hg (Apr 27, 3:20 AM)
Average53 °F61%30.11 "Hg
* Reported Apr 12 1:20 PM — Apr 27 1:20 PM, Troisdorf, Weather by CustomWeather, © 2015

Note: Actual official high and low records may vary slightly from our data, if they occured in-between our weather recording intervals... More about our weather records

Advertising

Troisdorf weather history for previous 24 hours

 ConditionsComfort  
Time TempWeatherWind HumidityBarometerVisibility
1:20 PM
Mon, Apr 27
46 °FLight rain. Broken clouds.10 mph87%29.71 "HgN/A
12:50 PM46 °FBroken clouds.10 mph87%29.71 "HgN/A
12:20 PM46 °FBroken clouds.10 mph93%29.71 "HgN/A
11:50 AM46 °FBroken clouds.12 mph87%29.71 "HgN/A
11:20 AM48 °FBroken clouds.12 mph87%29.71 "HgN/A
10:50 AM48 °FBroken clouds.10 mph94%29.68 "HgN/A
10:20 AM48 °FLight rain. Broken clouds.9 mph94%29.68 "Hg6 mi
9:50 AM48 °FBroken clouds.9 mph94%29.68 "Hg5 mi
9:20 AM48 °FBroken clouds.10 mph94%29.65 "Hg4 mi
8:50 AM48 °FFog.12 mph94%29.65 "Hg2 mi
8:20 AM48 °FFog.15 mph94%29.65 "Hg2 mi
7:50 AM50 °FFog.14 mph94%29.65 "Hg2 mi
7:20 AM50 °FDrizzle. Broken clouds.13 mph94%29.62 "Hg4 mi
6:50 AM52 °FPartly cloudy.8 mph94%29.62 "Hg4 mi
6:20 AM52 °FLight rain. Passing clouds.8 mph94%29.62 "Hg4 mi
5:50 AM52 °FPartly cloudy.7 mph94%29.62 "Hg4 mi
5:20 AM52 °FDrizzle. Fog.10 mph94%29.62 "Hg2 mi
4:50 AM52 °FLight rain. Fog.5 mph100%29.59 "Hg2 mi
4:20 AM52 °FLight rain. Fog.3 mph100%29.59 "Hg3 mi
3:50 AM52 °FLight rain. Partly cloudy.2 mph94%29.59 "Hg4 mi
3:20 AM52 °FLight rain. Partly cloudy.1 mph100%29.59 "Hg4 mi
2:50 AM54 °FLight rain. Passing clouds.2 mph94%29.62 "Hg5 mi
2:20 AM54 °FLight rain. Partly cloudy.1 mph94%29.62 "Hg6 mi
1:50 AM54 °FRain. Mostly cloudy.1 mph94%29.62 "Hg4 mi
1:20 AM54 °FRain. Mostly cloudy.6 mph94%29.62 "Hg4 mi
12:50 AM54 °FLight rain. Mostly cloudy.2 mph94%29.65 "Hg4 mi
12:20 AM54 °FLight rain. Partly cloudy.2 mph94%29.65 "Hg5 mi
11:50 PM
Sun, Apr 26
54 °FLight rain. Passing clouds.2 mph94%29.65 "Hg6 mi
11:20 PM54 °FLight rain. Passing clouds.5 mph94%29.65 "HgN/A
10:50 PM54 °FLight rain. Passing clouds.2 mph94%29.65 "HgN/A
10:20 PM54 °FLight rain. Passing clouds.2 mph94%29.68 "HgN/A
9:50 PM55 °FLight rain. Passing clouds.1 mph88%29.68 "HgN/A
9:20 PM55 °FPartly sunny.1 mph88%29.68 "HgN/A
8:50 PM55 °FPartly sunny.1 mph88%29.68 "HgN/A
8:20 PM55 °FBroken clouds.3 mph88%29.68 "HgN/A
7:50 PM55 °FLight rain. Broken clouds.7 mph88%29.68 "HgN/A
7:20 PM57 °FScattered showers. Partly sunny.7 mph88%29.68 "HgN/A
6:50 PM57 °FScattered showers. Scattered clouds.7 mph88%29.68 "HgN/A
6:20 PM59 °FRain showers. Broken clouds.10 mph77%29.68 "Hg5 mi
5:50 PM61 °FSprinkles. Broken clouds.6 mph72%29.68 "HgN/A
5:20 PM63 °FScattered showers. Scattered clouds.6 mph68%29.68 "HgN/A
4:50 PM61 °FSprinkles. Broken clouds.6 mph72%29.68 "HgN/A
4:20 PM63 °FSprinkles. Scattered clouds.5 mph68%29.68 "HgN/A
3:50 PM63 °FBroken clouds.7 mph73%29.71 "HgN/A
3:20 PM61 °FBroken clouds.5 mph72%29.71 "HgN/A
2:50 PM59 °FScattered showers. Partly sunny.7 mph82%29.71 "HgN/A
2:20 PM59 °FRain showers. Partly sunny.3 mph82%29.71 "HgN/A
Weather by CustomWeather, © 2015

See weather overviewHow to use our weather pages